owner,sensor,date,latitude,longitude,vertical_datum,wind_speed,wind_to_direction,wind_speed_of_gust,qcFlag 
LUMCON,ioos:station:LUMCON:105:1,2009-03-23T18:00:00Z,29.1874,-90.6654,1.0,7.7,120.0,9.8,'11111222,11111222,11111222' 
LUMCON,ioos:station:LUMCON:105:1,2009-03-23T19:00:00Z,29.1874,-90.6654,1.0,7.2,120.0,9.3,'11111222,11111222,11111222' 
LUMCON,ioos:station:LUMCON:105:1,2009-03-23T20:00:00Z,29.1874,-90.6654,1.0,8.2,120.0,9.8,'11111222,11111222,11111222' 
LUMCON,ioos:station:LUMCON:105:1,2009-03-23T21:00:00Z,29.1874,-90.6654,1.0,7.2,130.0,9.8,'11111222,11111222,11111222' 
LUMCON,ioos:station:LUMCON:105:1,2009-03-23T22:00:00Z,29.1874,-90.6654,1.0,7.2,120.0,9.3,'11111222,11111222,11111222' 
LUMCON,ioos:station:LUMCON:105:1,2009-03-23T23:00:00Z,29.1874,-90.6654,1.0,7.2,130.0,9.8,'11111222,11111222,11111222' 
LUMCON,ioos:station:LUMCON:105:1,2009-03-24T15:00:00Z,29.1874,-90.6654,1.0,7.2,130.0,9.3,'11111222,11111222,11111222' 
LUMCON,ioos:station:LUMCON:105:1,2009-03-24T16:00:00Z,29.1874,-90.6654,1.0,7.7,140.0,9.8,'11111222,11111222,11111222' 
LUMCON,ioos:station:LUMCON:105:1,2009-03-24T17:00:00Z,29.1874,-90.6654,1.0,7.2,140.0,9.3,'11111222,11111222,11111222' 
LUMCON,ioos:station:LUMCON:105:1,2009-03-24T18:00:00Z,29.1874,-90.6654,1.0,6.2,140.0,7.7,'11111222,11111222,11111222' 
LUMCON,ioos:station:LUMCON:105:1,2009-03-24T19:00:00Z,29.1874,-90.6654,1.0,7.2,130.0,9.3,'11111222,11111222,11111222' 
LUMCON,ioos:station:LUMCON:105:1,2009-03-24T20:00:00Z,29.1874,-90.6654,1.0,7.2,120.0,9.3,'11111222,11111222,11111222' 
LUMCON,ioos:station:LUMCON:105:1,2009-03-24T21:00:00Z,29.1874,-90.6654,1.0,7.7,130.0,9.8,'11111222,11111222,11111222' 
LUMCON,ioos:station:LUMCON:105:1,2009-03-24T22:00:00Z,29.1874,-90.6654,1.0,7.7,130.0,9.3,'11111222,11111222,11111222' 
LUMCON,ioos:station:LUMCON:105:1,2009-03-24T23:00:00Z,29.1874,-90.6654,1.0,7.7,140.0,9.3,'11111222,11111222,11111222' 
LUMCON,ioos:station:LUMCON:105:1,2009-03-25T00:00:00Z,29.1874,-90.6654,1.0,7.7,130.0,9.8,'11111222,11111222,11111222' 
LUMCON,ioos:station:LUMCON:105:1,2009-03-25T01:00:00Z,29.1874,-90.6654,1.0,7.7,140.0,9.8,'11111222,11111222,11111222' 
LUMCON,ioos:station:LUMCON:105:1,2009-03-25T02:00:00Z,29.1874,-90.6654,1.0,7.2,140.0,9.8,'11111222,11111222,11111222' 
LUMCON,ioos:station:LUMCON:105:1,2009-03-25T03:00:00Z,29.1874,-90.6654,1.0,7.2,140.0,9.8,'11111222,11111222,11111222' 
LUMCON,ioos:station:LUMCON:105:1,2009-03-25T04:00:00Z,29.1874,-90.6654,1.0,6.7,140.0,9.3,'11111222,11111222,11111222' 
LUMCON,ioos:station:LUMCON:105:1,2009-03-25T05:00:00Z,29.1874,-90.6654,1.0,6.7,150.0,8.8,'11111222,11111222,11111222' 
LUMCON,ioos:station:LUMCON:105:1,2009-03-25T06:00:00Z,29.1874,-90.6654,1.0,6.7,150.0,8.8,'11111222,11111222,11111222' 
LUMCON,ioos:station:LUMCON:105:1,2009-03-25T07:00:00Z,29.1874,-90.6654,1.0,6.7,140.0,8.8,'11111222,11111222,11111222' 
LUMCON,ioos:station:LUMCON:105:1,2009-03-25T08:00:00Z,29.1874,-90.6654,1.0,6.7,150.0,8.2,'11111222,11111222,11111222' 
LUMCON,ioos:station:LUMCON:105:1,2009-03-25T09:00:00Z,29.1874,-90.6654,1.0,6.2,150.0,8.2,'11111222,11111222,11111222' 
LUMCON,ioos:station:LUMCON:105:1,2009-03-25T10:00:00Z,29.1874,-90.6654,1.0,5.7,150.0,7.2,'11111222,11111222,11111222' 
LUMCON,ioos:station:LUMCON:105:1,2009-03-25T11:00:00Z,29.1874,-90.6654,1.0,6.2,150.0,8.2,'11111222,11111222,11111222' 
LUMCON,ioos:station:LUMCON:105:1,2009-03-25T12:00:00Z,29.1874,-90.6654,1.0,6.2,160.0,8.2,'11111222,11111222,11111222' 
LUMCON,ioos:station:LUMCON:105:1,2009-03-25T13:00:00Z,29.1874,-90.6654,1.0,6.2,160.0,8.2,'11111222,11111222,11111222' 
LUMCON,ioos:station:LUMCON:105:1,2009-03-25T14:00:00Z,29.1874,-90.6654,1.0,7.2,170.0,9.3,'11111222,11111222,11111222' 
LUMCON,ioos:station:LUMCON:105:1,2009-03-25T15:00:00Z,29.1874,-90.6654,1.0,7.2,170.0,9.8,'11111222,11111222,11111222' 
LUMCON,ioos:station:LUMCON:105:1,2009-03-25T16:00:00Z,29.1874,-90.6654,1.0,7.2,170.0,9.8,'11111222,11111222,11111222' 
LUMCON,ioos:station:LUMCON:105:1,2009-03-25T17:00:00Z,29.1874,-90.6654,1.0,7.2,160.0,9.8,'11111222,11111222,11111222' 
LUMCON,ioos:station:LUMCON:105:1,2009-03-25T18:00:00Z,29.1874,-90.6654,1.0,6.7,170.0,9.3,'11111222,11111222,11111222' 
LUMCON,ioos:station:LUMCON:105:1,2009-03-25T19:00:00Z,29.1874,-90.6654,1.0,6.7,170.0,9.3,'11111222,11111222,11111222' 
LUMCON,ioos:station:LUMCON:105:1,2009-03-25T20:00:00Z,29.1874,-90.6654,1.0,6.7,170.0,9.8,'11111222,11111222,11111222' 
LUMCON,ioos:station:LUMCON:105:1,2009-03-25T21:00:00Z,29.1874,-90.6654,1.0,6.7,170.0,8.8,'11111222,11111222,11111222' 
LUMCON,ioos:station:LUMCON:105:1,2009-03-25T22:00:00Z,29.1874,-90.6654,1.0,7.2,170.0,8.8,'11111222,11111222,11111222' 
LUMCON,ioos:station:LUMCON:105:1,2009-03-25T23:00:00Z,29.1874,-90.6654,1.0,7.2,170.0,8.8,'11111222,11111222,11111222' 
LUMCON,ioos:station:LUMCON:105:1,2009-03-26T00:00:00Z,29.1874,-90.6654,1.0,7.2,180.0,9.3,'11111222,11111222,11111222' 
LUMCON,ioos:station:LUMCON:105:1,2009-03-26T01:00:00Z,29.1874,-90.6654,1.0,7.2,170.0,9.8,'11111222,11111222,11111222' 
LUMCON,ioos:station:LUMCON:105:1,2009-03-26T02:00:00Z,29.1874,-90.6654,1.0,8.2,180.0,9.8,'11111222,11111222,11111222' 
LUMCON,ioos:station:LUMCON:105:1,2009-03-26T03:00:00Z,29.1874,-90.6654,1.0,8.2,170.0,9.8,'11111222,11111222,11111222' 
LUMCON,ioos:station:LUMCON:105:1,2009-03-26T04:00:00Z,29.1874,-90.6654,1.0,8.2,180.0,9.8,'11111222,11111222,11111222' 
LUMCON,ioos:station:LUMCON:105:1,2009-03-26T05:00:00Z,29.1874,-90.6654,1.0,6.7,180.0,9.8,'11111222,11111222,11111222' 
LUMCON,ioos:station:LUMCON:105:1,2009-03-26T06:00:00Z,29.1874,-90.6654,1.0,6.2,190.0,8.2,'11111222,11111222,11111222' 
LUMCON,ioos:station:LUMCON:105:1,2009-03-26T07:00:00Z,29.1874,-90.6654,1.0,6.7,180.0,8.8,'11111222,11111222,11111222' 
LUMCON,ioos:station:LUMCON:105:1,2009-03-26T08:00:00Z,29.1874,-90.6654,1.0,6.2,200.0,9.8,'11111222,11111222,11111222' 
LUMCON,ioos:station:LUMCON:105:1,2009-03-26T09:00:00Z,29.1874,-90.6654,1.0,7.7,200.0,9.8,'11111222,11111222,11111222' 
LUMCON,ioos:station:LUMCON:105:1,2009-03-26T10:00:00Z,29.1874,-90.6654,1.0,6.2,200.0,8.8,'11111222,11111222,11111222' 
LUMCON,ioos:station:LUMCON:105:1,2009-03-26T11:00:00Z,29.1874,-90.6654,1.0,4.6,220.0,6.7,'11111222,11111222,11111222' 
LUMCON,ioos:station:LUMCON:105:1,2009-03-26T12:00:00Z,29.1874,-90.6654,1.0,4.6,210.0,6.7,'11111222,11111222,11111222' 
LUMCON,ioos:station:LUMCON:105:1,2009-03-26T13:00:00Z,29.1874,-90.6654,1.0,4.6,210.0,6.7,'11111222,11111222,11111222' 
LUMCON,ioos:station:LUMCON:105:1,2009-03-26T14:00:00Z,29.1874,-90.6654,1.0,4.6,190.0,6.7,'11111222,11111222,11111222' 
LUMCON,ioos:station:LUMCON:105:1,2009-03-26T15:00:00Z,29.1874,-90.6654,1.0,4.1,150.0,8.2,'11111222,11111222,11111222' 
LUMCON,ioos:station:LUMCON:105:1,2009-03-26T16:00:00Z,29.1874,-90.6654,1.0,4.1,150.0,5.7,'11111222,11111222,11111222' 
LUMCON,ioos:station:LUMCON:105:1,2009-03-26T17:00:00Z,29.1874,-90.6654,1.0,4.6,150.0,8.2,'11111222,11111222,11111222' 
LUMCON,ioos:station:LUMCON:105:1,2009-03-26T18:00:00Z,29.1874,-90.6654,1.0,5.1,160.0,6.7,'11111222,11111222,11111222' 
LUMCON,ioos:station:LUMCON:105:1,2009-03-26T19:00:00Z,29.1874,-90.6654,1.0,6.2,130.0,8.2,'11111222,11111222,11111222' 
LUMCON,ioos:station:LUMCON:105:1,2009-03-26T20:00:00Z,29.1874,-90.6654,1.0,6.7,140.0,8.8,'11111222,11111222,11111222' 
LUMCON,ioos:station:LUMCON:105:1,2009-03-26T21:00:00Z,29.1874,-90.6654,1.0,7.7,130.0,9.8,'11111222,11111222,11111222' 
LUMCON,ioos:station:LUMCON:105:1,2009-03-26T22:00:00Z,29.1874,-90.6654,1.0,8.2,160.0,9.8,'11111222,11111222,11111222' 
LUMCON,ioos:station:LUMCON:105:1,2009-03-26T23:00:00Z,29.1874,-90.6654,1.0,8.2,130.0,9.8,'11111222,11111222,11111222' 
LUMCON,ioos:station:LUMCON:105:1,2009-03-27T00:00:00Z,29.1874,-90.6654,1.0,7.2,140.0,9.8,'11111222,11111222,11111222' 
LUMCON,ioos:station:LUMCON:105:1,2009-03-27T01:00:00Z,29.1874,-90.6654,1.0,7.7,160.0,9.8,'11111222,11111222,11111222' 
LUMCON,ioos:station:LUMCON:105:1,2009-03-27T02:00:00Z,29.1874,-90.6654,1.0,7.7,160.0,9.8,'11111222,11111222,11111222' 
LUMCON,ioos:station:LUMCON:105:1,2009-03-27T03:00:00Z,29.1874,-90.6654,1.0,9.3,150.0,9.8,'11111222,11111222,11111222' 
LUMCON,ioos:station:LUMCON:105:1,2009-03-27T04:00:00Z,29.1874,-90.6654,1.0,12.9,160.0,99.0,'11111222,11111222,11144222' 
LUMCON,ioos:station:LUMCON:105:1,2009-03-27T05:00:00Z,29.1874,-90.6654,1.0,11.8,180.0,17.0,'11111222,11111222,11111222' 
LUMCON,ioos:station:LUMCON:105:1,2009-03-27T06:00:00Z,29.1874,-90.6654,1.0,9.8,190.0,9.8,'11111222,11111222,11111222' 
LUMCON,ioos:station:LUMCON:105:1,2009-03-27T07:00:00Z,29.1874,-90.6654,1.0,10.8,210.0,14.9,'11111222,11111222,11111222' 
LUMCON,ioos:station:LUMCON:105:1,2009-03-27T08:00:00Z,29.1874,-90.6654,1.0,9.3,200.0,9.8,'11111222,11111222,11111222' 
LUMCON,ioos:station:LUMCON:105:1,2009-03-27T09:00:00Z,29.1874,-90.6654,1.0,9.3,210.0,9.8,'11111222,11111222,11111222' 
LUMCON,ioos:station:LUMCON:105:1,2009-03-27T10:00:00Z,29.1874,-90.6654,1.0,6.7,220.0,8.2,'11111222,11111222,11111222' 
LUMCON,ioos:station:LUMCON:105:1,2009-03-27T11:00:00Z,29.1874,-90.6654,1.0,5.7,220.0,7.7,'11111222,11111222,11111222' 
LUMCON,ioos:station:LUMCON:105:1,2009-03-27T12:00:00Z,29.1874,-90.6654,1.0,4.6,230.0,5.7,'11111222,11111222,11111222' 
LUMCON,ioos:station:LUMCON:105:1,2009-03-27T13:00:00Z,29.1874,-90.6654,1.0,5.1,190.0,7.2,'11111222,11111222,11111222' 
LUMCON,ioos:station:LUMCON:105:1,2009-03-27T14:00:00Z,29.1874,-90.6654,1.0,4.6,200.0,6.2,'11111222,11111222,11111222' 
LUMCON,ioos:station:LUMCON:105:1,2009-03-27T15:00:00Z,29.1874,-90.6654,1.0,3.1,210.0,4.6,'11111222,11111222,11111222' 
LUMCON,ioos:station:LUMCON:105:1,2009-03-27T16:00:00Z,29.1874,-90.6654,1.0,4.1,160.0,6.2,'11111222,11111222,11111222' 
LUMCON,ioos:station:LUMCON:105:1,2009-03-27T17:00:00Z,29.1874,-90.6654,1.0,4.1,180.0,5.7,'11111222,11111222,11111222' 
LUMCON,ioos:station:LUMCON:105:1,2009-03-27T18:00:00Z,29.1874,-90.6654,1.0,5.1,180.0,7.7,'11111222,11111222,11111222' 
LUMCON,ioos:station:LUMCON:105:1,2009-03-27T19:00:00Z,29.1874,-90.6654,1.0,5.1,170.0,7.7,'11111222,11111222,11111222' 
LUMCON,ioos:station:LUMCON:105:1,2009-03-27T20:00:00Z,29.1874,-90.6654,1.0,5.1,170.0,7.2,'11111222,11111222,11111222' 
LUMCON,ioos:station:LUMCON:105:1,2009-03-27T21:00:00Z,29.1874,-90.6654,1.0,5.7,170.0,8.2,'11111222,11111222,11111222' 
LUMCON,ioos:station:LUMCON:105:1,2009-03-27T22:00:00Z,29.1874,-90.6654,1.0,6.2,160.0,8.2,'11111222,11111222,11111222' 
LUMCON,ioos:station:LUMCON:105:1,2009-03-27T23:00:00Z,29.1874,-90.6654,1.0,7.7,140.0,9.8,'11111222,11111222,11111222' 
LUMCON,ioos:station:LUMCON:105:1,2009-03-28T00:00:00Z,29.1874,-90.6654,1.0,6.2,170.0,8.2,'11111222,11111222,11111222' 
LUMCON,ioos:station:LUMCON:105:1,2009-03-28T01:00:00Z,29.1874,-90.6654,1.0,7.2,160.0,9.8,'11111222,11111222,11111222' 
LUMCON,ioos:station:LUMCON:105:1,2009-03-28T02:00:00Z,29.1874,-90.6654,1.0,6.2,180.0,9.3,'11111222,11111222,11111222' 
LUMCON,ioos:station:LUMCON:105:1,2009-03-28T03:00:00Z,29.1874,-90.6654,1.0,7.7,170.0,9.8,'11111222,11111222,11111222' 
LUMCON,ioos:station:LUMCON:105:1,2009-03-28T04:00:00Z,29.1874,-90.6654,1.0,7.2,190.0,9.3,'11111222,11111222,11111222' 
LUMCON,ioos:station:LUMCON:105:1,2009-03-28T05:00:00Z,29.1874,-90.6654,1.0,8.2,190.0,9.8,'11111222,11111222,11111222' 
LUMCON,ioos:station:LUMCON:105:1,2009-03-28T06:00:00Z,29.1874,-90.6654,1.0,8.2,170.0,9.8,'11111222,11111222,11111222' 
LUMCON,ioos:station:LUMCON:105:1,2009-03-28T07:00:00Z,29.1874,-90.6654,1.0,8.8,210.0,9.8,'11111222,11111222,11111222' 
LUMCON,ioos:station:LUMCON:105:1,2009-03-28T08:00:00Z,29.1874,-90.6654,1.0,8.8,200.0,9.8,'11111222,11111222,11111222' 
LUMCON,ioos:station:LUMCON:105:1,2009-03-28T09:00:00Z,29.1874,-90.6654,1.0,9.8,220.0,9.8,'11111222,11111222,11111222' 
LUMCON,ioos:station:LUMCON:105:1,2009-03-28T10:00:00Z,29.1874,-90.6654,1.0,7.2,300.0,9.8,'11111222,11111222,11111222' 
LUMCON,ioos:station:LUMCON:105:1,2009-03-28T11:00:00Z,29.1874,-90.6654,1.0,9.8,300.0,9.8,'11111222,11111222,11111222' 
LUMCON,ioos:station:LUMCON:105:1,2009-03-28T12:00:00Z,29.1874,-90.6654,1.0,10.3,300.0,99.0,'11111222,11111222,11144222' 
LUMCON,ioos:station:LUMCON:105:1,2009-03-28T13:00:00Z,29.1874,-90.6654,1.0,7.7,290.0,9.8,'11111222,11111222,11111222' 
LUMCON,ioos:station:LUMCON:105:1,2009-03-28T14:00:00Z,29.1874,-90.6654,1.0,7.7,300.0,9.8,'11111222,11111222,11111222' 
LUMCON,ioos:station:LUMCON:105:1,2009-03-28T15:00:00Z,29.1874,-90.6654,1.0,8.2,300.0,9.8,'11111222,11111222,11111222' 
LUMCON,ioos:station:LUMCON:105:1,2009-03-28T16:00:00Z,29.1874,-90.6654,1.0,8.8,300.0,9.8,'11111222,11111222,11111222' 
LUMCON,ioos:station:LUMCON:105:1,2009-03-28T17:00:00Z,29.1874,-90.6654,1.0,8.2,280.0,9.8,'11111222,11111222,11111222' 
LUMCON,ioos:station:LUMCON:105:1,2009-03-28T18:00:00Z,29.1874,-90.6654,1.0,9.3,290.0,99.0,'11111222,11111222,11144222' 
LUMCON,ioos:station:LUMCON:105:1,2009-03-28T19:00:00Z,29.1874,-90.6654,1.0,9.3,290.0,9.8,'11111222,11111222,11111222' 
LUMCON,ioos:station:LUMCON:105:1,2009-03-28T20:00:00Z,29.1874,-90.6654,1.0,8.8,270.0,9.8,'11111222,11111222,11111222' 
LUMCON,ioos:station:LUMCON:105:1,2009-03-28T21:00:00Z,29.1874,-90.6654,1.0,10.3,280.0,16.0,'11111222,11111222,11111222' 
LUMCON,ioos:station:LUMCON:105:1,2009-03-28T22:00:00Z,29.1874,-90.6654,1.0,9.8,280.0,9.8,'11111222,11111222,11111222' 
LUMCON,ioos:station:LUMCON:105:1,2009-03-28T23:00:00Z,29.1874,-90.6654,1.0,10.3,290.0,99.0,'11111222,11111222,11144222' 
LUMCON,ioos:station:LUMCON:105:1,2009-03-29T00:00:00Z,29.1874,-90.6654,1.0,8.8,290.0,9.8,'11111222,11111222,11111222' 
LUMCON,ioos:station:LUMCON:105:1,2009-03-29T01:00:00Z,29.1874,-90.6654,1.0,9.3,290.0,9.3,'11111222,11111222,11111222' 
LUMCON,ioos:station:LUMCON:105:1,2009-03-29T02:00:00Z,29.1874,-90.6654,1.0,8.8,300.0,9.8,'11111222,11111222,11111222' 
LUMCON,ioos:station:LUMCON:105:1,2009-03-29T03:00:00Z,29.1874,-90.6654,1.0,8.8,310.0,9.8,'11111222,11111222,11111222' 
LUMCON,ioos:station:LUMCON:105:1,2009-03-29T04:00:00Z,29.1874,-90.6654,1.0,8.2,310.0,9.3,'11111222,11111222,11111222' 
LUMCON,ioos:station:LUMCON:105:1,2009-03-29T05:00:00Z,29.1874,-90.6654,1.0,9.3,290.0,9.8,'11111222,11111222,11111222' 
LUMCON,ioos:station:LUMCON:105:1,2009-03-29T06:00:00Z,29.1874,-90.6654,1.0,9.8,310.0,99.0,'11111222,11111222,11144222' 
LUMCON,ioos:station:LUMCON:105:1,2009-03-29T07:00:00Z,29.1874,-90.6654,1.0,8.2,310.0,9.8,'11111222,11111222,11111222' 
LUMCON,ioos:station:LUMCON:105:1,2009-03-29T08:00:00Z,29.1874,-90.6654,1.0,7.7,310.0,9.8,'11111222,11111222,11111222' 
LUMCON,ioos:station:LUMCON:105:1,2009-03-29T09:00:00Z,29.1874,-90.6654,1.0,7.7,300.0,9.8,'11111222,11111222,11111222' 
LUMCON,ioos:station:LUMCON:105:1,2009-03-29T10:00:00Z,29.1874,-90.6654,1.0,8.8,320.0,9.8,'11111222,11111222,11111222' 
LUMCON,ioos:station:LUMCON:105:1,2009-03-29T11:00:00Z,29.1874,-90.6654,1.0,9.3,320.0,9.8,'11111222,11111222,11111222' 
LUMCON,ioos:station:LUMCON:105:1,2009-03-29T12:00:00Z,29.1874,-90.6654,1.0,7.7,320.0,9.8,'11111222,11111222,11111222' 
LUMCON,ioos:station:LUMCON:105:1,2009-03-29T13:00:00Z,29.1874,-90.6654,1.0,7.2,330.0,9.8,'11111222,11111222,11111222' 
LUMCON,ioos:station:LUMCON:105:1,2009-03-29T14:00:00Z,29.1874,-90.6654,1.0,7.7,340.0,9.8,'11111222,11111222,11111222' 
LUMCON,ioos:station:LUMCON:105:1,2009-03-29T15:00:00Z,29.1874,-90.6654,1.0,6.7,350.0,8.8,'11111222,11111222,11111222' 
LUMCON,ioos:station:LUMCON:105:1,2009-03-29T16:00:00Z,29.1874,-90.6654,1.0,6.2,340.0,8.8,'11111222,11111222,11111222' 
LUMCON,ioos:station:LUMCON:105:1,2009-03-29T17:00:00Z,29.1874,-90.6654,1.0,4.1,330.0,5.7,'11111222,11111222,11111222' 
LUMCON,ioos:station:LUMCON:105:1,2009-03-29T18:00:00Z,29.1874,-90.6654,1.0,2.6,320.0,4.6,'11111222,11111222,11111222' 
LUMCON,ioos:station:LUMCON:105:1,2009-03-29T19:00:00Z,29.1874,-90.6654,1.0,4.6,320.0,6.7,'11111222,11111222,11111222' 
LUMCON,ioos:station:LUMCON:105:1,2009-03-29T20:00:00Z,29.1874,-90.6654,1.0,3.6,300.0,5.7,'11111222,11111222,11111222' 
LUMCON,ioos:station:LUMCON:105:1,2009-03-29T21:00:00Z,29.1874,-90.6654,1.0,2.6,300.0,4.6,'11111222,11111222,11111222' 
LUMCON,ioos:station:LUMCON:105:1,2009-03-29T22:00:00Z,29.1874,-90.6654,1.0,5.1,270.0,8.8,'11111222,11111222,11111222' 
LUMCON,ioos:station:LUMCON:105:1,2009-03-29T23:00:00Z,29.1874,-90.6654,1.0,3.6,280.0,6.2,'11111222,11111222,11111222' 
LUMCON,ioos:station:LUMCON:105:1,2009-03-30T00:00:00Z,29.1874,-90.6654,1.0,3.1,290.0,5.1,'11111222,11111222,11111222' 
LUMCON,ioos:station:LUMCON:105:1,2009-03-30T01:00:00Z,29.1874,-90.6654,1.0,2.6,270.0,3.6,'11111222,11111222,11111222' 
LUMCON,ioos:station:LUMCON:105:1,2009-03-30T02:00:00Z,29.1874,-90.6654,1.0,3.1,250.0,4.1,'11111222,11111222,11111222' 
LUMCON,ioos:station:LUMCON:105:1,2009-03-30T03:00:00Z,29.1874,-90.6654,1.0,2.1,280.0,3.1,'11111222,11111222,11111222' 
LUMCON,ioos:station:LUMCON:105:1,2009-03-30T04:00:00Z,29.1874,-90.6654,1.0,0.5,290.0,1.5,'11111222,11111222,11111222' 
LUMCON,ioos:station:LUMCON:105:1,2009-03-30T05:00:00Z,29.1874,-90.6654,1.0,1.0,270.0,2.1,'11111222,11111222,11111222' 
LUMCON,ioos:station:LUMCON:105:1,2009-03-30T06:00:00Z,29.1874,-90.6654,1.0,2.6,300.0,4.1,'11111222,11111222,11111222' 
LUMCON,ioos:station:LUMCON:105:1,2009-03-30T07:00:00Z,29.1874,-90.6654,1.0,1.5,190.0,5.1,'11111222,11111222,11111222' 
LUMCON,ioos:station:LUMCON:105:1,2009-03-30T08:00:00Z,29.1874,-90.6654,1.0,1.0,320.0,3.6,'11111222,11111222,11111222' 
LUMCON,ioos:station:LUMCON:105:1,2009-03-30T09:00:00Z,29.1874,-90.6654,1.0,2.1,80.0,3.6,'11111222,11111222,11111222' 
LUMCON,ioos:station:LUMCON:105:1,2009-03-30T10:00:00Z,29.1874,-90.6654,1.0,3.6,130.0,6.7,'11111222,11111222,11111222' 
LUMCON,ioos:station:LUMCON:105:1,2009-03-30T11:00:00Z,29.1874,-90.6654,1.0,5.1,130.0,8.8,'11111222,11111222,11111222' 
LUMCON,ioos:station:LUMCON:105:1,2009-03-30T12:00:00Z,29.1874,-90.6654,1.0,5.1,130.0,8.8,'11111222,11111222,11111222' 
LUMCON,ioos:station:LUMCON:105:1,2009-03-30T13:00:00Z,29.1874,-90.6654,1.0,6.2,130.0,8.8,'11111222,11111222,11111222' 
LUMCON,ioos:station:LUMCON:105:1,2009-03-30T14:00:00Z,29.1874,-90.6654,1.0,5.7,130.0,7.2,'11111222,11111222,11111222' 
LUMCON,ioos:station:LUMCON:105:1,2009-03-30T15:00:00Z,29.1874,-90.6654,1.0,5.7,140.0,7.7,'11111222,11111222,11111222' 
LUMCON,ioos:station:LUMCON:105:1,2009-03-30T16:00:00Z,29.1874,-90.6654,1.0,5.7,120.0,8.2,'11111222,11111222,11111222' 
LUMCON,ioos:station:LUMCON:105:1,2009-03-30T17:00:00Z,29.1874,-90.6654,1.0,6.7,120.0,8.2,'11111222,11111222,11111222' 
LUMCON,ioos:station:LUMCON:105:1,2009-03-30T18:00:00Z,29.1874,-90.6654,1.0,7.7,130.0,9.8,'11111222,11111222,11111222' 
LUMCON,ioos:station:LUMCON:105:1,2009-03-30T19:00:00Z,29.1874,-90.6654,1.0,7.2,140.0,9.8,'11111222,11111222,11111222' 
LUMCON,ioos:station:LUMCON:105:1,2009-03-30T20:00:00Z,29.1874,-90.6654,1.0,7.7,130.0,9.8,'11111222,11111222,11111222' 
LUMCON,ioos:station:LUMCON:105:1,2009-03-30T21:00:00Z,29.1874,-90.6654,1.0,7.2,140.0,9.8,'11111222,11111222,11111222' 
LUMCON,ioos:station:LUMCON:105:1,2009-03-30T22:00:00Z,29.1874,-90.6654,1.0,7.7,130.0,9.8,'11111222,11111222,11111222' 
LUMCON,ioos:station:LUMCON:105:1,2009-03-30T23:00:00Z,29.1874,-90.6654,1.0,8.2,140.0,9.8,'11111222,11111222,11111222' 
LUMCON,ioos:station:LUMCON:105:1,2009-03-31T00:00:00Z,29.1874,-90.6654,1.0,7.7,130.0,9.8,'11111222,11111222,11111222' 
LUMCON,ioos:station:LUMCON:105:1,2009-03-31T01:00:00Z,29.1874,-90.6654,1.0,8.2,130.0,9.8,'11111222,11111222,11111222' 
LUMCON,ioos:station:LUMCON:105:1,2009-03-31T02:00:00Z,29.1874,-90.6654,1.0,7.7,140.0,9.8,'11111222,11111222,11111222' 
LUMCON,ioos:station:LUMCON:105:1,2009-03-31T03:00:00Z,29.1874,-90.6654,1.0,7.2,140.0,9.8,'11111222,11111222,11111222' 
LUMCON,ioos:station:LUMCON:105:1,2009-03-31T04:00:00Z,29.1874,-90.6654,1.0,7.2,130.0,9.8,'11111222,11111222,11111222' 
LUMCON,ioos:station:LUMCON:105:1,2009-03-31T05:00:00Z,29.1874,-90.6654,1.0,7.7,130.0,9.8,'11111222,11111222,11111222' 
LUMCON,ioos:station:LUMCON:105:1,2009-03-31T06:00:00Z,29.1874,-90.6654,1.0,6.7,140.0,9.8,'11111222,11111222,11111222' 
LUMCON,ioos:station:LUMCON:105:1,2009-03-31T07:00:00Z,29.1874,-90.6654,1.0,6.7,140.0,9.3,'11111222,11111222,11111222' 
LUMCON,ioos:station:LUMCON:105:1,2009-03-31T08:00:00Z,29.1874,-90.6654,1.0,6.2,150.0,8.8,'11111222,11111222,11111222' 
LUMCON,ioos:station:LUMCON:105:1,2009-03-31T09:00:00Z,29.1874,-90.6654,1.0,5.7,150.0,7.2,'11111222,11111222,11111222' 
LUMCON,ioos:station:LUMCON:105:1,2009-03-31T10:00:00Z,29.1874,-90.6654,1.0,5.1,160.0,6.2,'11111222,11111222,11111222' 
LUMCON,ioos:station:LUMCON:105:1,2009-03-31T11:00:00Z,29.1874,-90.6654,1.0,6.2,150.0,7.7,'11111222,11111222,11111222' 
LUMCON,ioos:station:LUMCON:105:1,2009-03-31T12:00:00Z,29.1874,-90.6654,1.0,5.1,160.0,7.2,'11111222,11111222,11111222' 
LUMCON,ioos:station:LUMCON:105:1,2009-03-31T13:00:00Z,29.1874,-90.6654,1.0,3.6,150.0,5.1,'11111222,11111222,11111222' 
LUMCON,ioos:station:LUMCON:105:1,2009-03-31T14:00:00Z,29.1874,-90.6654,1.0,2.6,150.0,3.6,'11111222,11111222,11111222' 
LUMCON,ioos:station:LUMCON:105:1,2009-03-31T15:00:00Z,29.1874,-90.6654,1.0,3.1,160.0,5.1,'11111222,11111222,11111222' 
LUMCON,ioos:station:LUMCON:105:1,2009-03-31T16:00:00Z,29.1874,-90.6654,1.0,1.5,280.0,2.6,'11111222,11111222,11111222' 
LUMCON,ioos:station:LUMCON:105:1,2009-03-31T17:00:00Z,29.1874,-90.6654,1.0,2.1,200.0,4.1,'11111222,11111222,11111222' 
LUMCON,ioos:station:LUMCON:105:1,2009-03-31T18:00:00Z,29.1874,-90.6654,1.0,2.6,170.0,4.1,'11111222,11111222,11111222' 
LUMCON,ioos:station:LUMCON:105:1,2009-03-31T19:00:00Z,29.1874,-90.6654,1.0,1.5,210.0,3.6,'11111222,11111222,11111222' 
LUMCON,ioos:station:LUMCON:105:1,2009-03-31T20:00:00Z,29.1874,-90.6654,1.0,3.1,230.0,6.2,'11111222,11111222,11111222' 
LUMCON,ioos:station:LUMCON:105:1,2009-03-31T21:00:00Z,29.1874,-90.6654,1.0,3.1,260.0,5.1,'11111222,11111222,11111222' 
LUMCON,ioos:station:LUMCON:105:1,2009-03-31T22:00:00Z,29.1874,-90.6654,1.0,3.1,270.0,4.6,'11111222,11111222,11111222' 
LUMCON,ioos:station:LUMCON:105:1,2009-03-31T23:00:00Z,29.1874,-90.6654,1.0,2.1,220.0,4.1,'11111222,11111222,11111222' 
 
DISCLAIMER: The Gulf of Mexico Coastal and Ocean Observing (GCOOS) Data Portal aggregates data from the regional data providers for the convenience of all data users. Data published on this website should not be used for navigation or certain other uses as we cannot guarantee data accuracy or availability. The data and delivery services are provided 'as is' without warranty of any kind. Data Source: Gulf of Mexico Coastal Ocean Observing System Data Portal (http://data.gcoos.org/) 
